Lyndonville, VT

3:39 PM EDT on October 18, 2019 (GMT -0400)
Lyndonville

Weather History for KCDA - September, 2019

Change the Weather History Date:

Tuesday, September 17, 2019

  Actual Average (WUND) Record (WUND)
Temperature  
Mean Temperature 52 °F -  
Max Temperature 63 °F - - (-1)
Min Temperature 40 °F - - (-1)
Degree Days  
Heating Degree Days 14    
Growing Degree Days 2 (Base 50)    
Moisture  
Dew Point 45 °F    
Average Humidity 80    
Maximum Humidity 98    
Minimum Humidity 54    
Precipitation  
Precipitation 0.00 in - - ()
Sea Level Pressure  
Sea Level Pressure 30.19 in    
Wind  
Wind Speed 3 mph (NW)    
Max Wind Speed 10 mph    
Max Gust Speed -    
Visibility 9 miles    
Events Fog    
Averages and records for this station are not official NWS values.
T = Trace of Precipitation, MM = Missing Value Source: NWS Daily Summary

Daily Weather History Graph

Daily Weather History Graph

Search for Another Location

Airport or City:

Astronomy

Sep. 17, 2019 Rise Set
Actual Time 6:29 AM EDT 6:55 PM EDT
Civil Twilight 5:59 AM EDT 7:24 PM EDT
Nautical Twilight 5:25 AM EDT 7:59 PM EDT
Astronomical Twilight 4:49 AM EDT 8:34 PM EDT
Moon 8:49 PM EDT (9/17) 9:36 AM EDT (9/17)
Length of Visible Light 13h 24m
Length of Day
12h 26m
Waning Gibbous, 89% of the Moon is Illuminated
Sep 17
Waning Gibbous
Sep 21
Last Quarter
Sep 28
New
Oct 5
First Quarter
Oct 13
Full

Hourly Weather History & Observations

Time (EDT) Temp. Windchill Dew Point Humidity Pressure Visibility Wind Dir Wind Speed Gust Speed Precip Events Conditions
12:16 AM 45.0 °F - 43.7 °F 95% 30.11 in 7.0 mi Calm Calm - N/A   Clear
12:36 AM 45.0 °F - 44.1 °F 97% 30.11 in 7.0 mi Calm Calm - N/A   Clear
12:56 AM 43.9 °F - 43.0 °F 97% 30.11 in 10.0 mi Calm Calm - N/A   Clear
1:17 AM 43.9 °F 42.3 °F 43.0 °F 97% 30.12 in 10.0 mi ENE 3.5 mph - N/A   Clear
1:36 AM 43.9 °F - 43.0 °F 97% 30.13 in 10.0 mi Calm Calm - N/A   Clear
1:57 AM 46.0 °F - 45.0 °F 96% 30.13 in 10.0 mi Calm Calm - N/A   Clear
2:16 AM 44.4 °F - 42.6 °F 93% 30.13 in 10.0 mi Calm Calm - N/A   Clear
2:36 AM 45.0 °F - 43.9 °F 96% 30.13 in 10.0 mi Calm Calm - N/A   Clear
2:56 AM 44.8 °F - 43.7 °F 96% 30.12 in 10.0 mi Calm Calm - N/A   Clear
3:16 AM 42.1 °F - 40.8 °F 95% 30.12 in 7.0 mi Calm Calm - N/A   Clear
3:36 AM 41.9 °F - 40.6 °F 95% 30.12 in 2.0 mi Calm Calm - N/A   Clear
3:57 AM 41.9 °F 39.0 °F 41.0 °F 97% 30.13 in 5.0 mi NE 4.6 mph - N/A   Clear
4:16 AM 41.7 °F - 41.0 °F 97% 30.13 in 2.5 mi Calm Calm - N/A   Clear
4:36 AM 40.8 °F - 40.1 °F 97% 30.13 in 0.8 mi Calm Calm - N/A   Mist
4:56 AM 41.0 °F - 40.3 °F 97% 30.13 in 0.5 mi Calm Calm - N/A Fog Fog
5:17 AM 41.2 °F - 40.6 °F 98% 30.13 in 7.0 mi Calm Calm - N/A   Clear
5:36 AM 41.0 °F - 40.5 °F 98% 30.14 in 5.0 mi Calm Calm - N/A   Clear
5:56 AM 41.5 °F 38.6 °F 40.8 °F 97% 30.14 in 7.0 mi NNE 4.6 mph - N/A   Clear
6:20 AM 42.1 °F 40.2 °F 41.2 °F 97% 30.15 in 10.0 mi NNW 3.5 mph - N/A   Clear
6:59 AM 42.4 °F - 41.2 °F 95% 30.17 in 10.0 mi Calm Calm - N/A   Clear
7:16 AM 43.5 °F - 42.6 °F 97% 30.18 in 10.0 mi Calm Calm - N/A   Scattered Clouds
7:39 AM 43.7 °F - 42.4 °F 95% 30.18 in 10.0 mi Calm Calm - N/A   Scattered Clouds
7:55 AM 47.1 °F - 45.1 °F 93% 30.18 in 10.0 mi WNW 3.5 mph - N/A   Mostly Cloudy
8:20 AM 46.8 °F - 45.3 °F 95% 30.19 in 10.0 mi Calm Calm - N/A   Mostly Cloudy
8:35 AM 48.2 °F - 46.8 °F 95% 30.20 in 10.0 mi WNW 5.8 mph - N/A   Mostly Cloudy
9:15 AM 52.0 °F - 48.0 °F 86% 30.20 in 10.0 mi NW 5.8 mph - N/A   Overcast
9:39 AM 52.0 °F - 47.8 °F 86% 30.21 in 10.0 mi West 5.8 mph - N/A   Overcast
9:56 AM 51.6 °F - 46.9 °F 84% 30.21 in 10.0 mi NW 4.6 mph - N/A   Mostly Cloudy
10:19 AM 54.0 °F - 47.7 °F 79% 30.21 in 10.0 mi North 3.5 mph - N/A   Overcast
10:36 AM 54.3 °F - 46.9 °F 76% 30.21 in 10.0 mi NW 3.5 mph - N/A   Mostly Cloudy
11:15 AM 55.6 °F - 48.2 °F 76% 30.21 in 10.0 mi NW 5.8 mph - N/A   Scattered Clouds
11:39 AM 58.3 °F - 48.2 °F 69% 30.21 in 10.0 mi North 5.8 mph - N/A   Clear
11:56 AM 60.4 °F - 49.6 °F 68% 30.21 in 10.0 mi NNW 9.2 mph - N/A   Mostly Cloudy
12:19 PM 58.3 °F - 48.2 °F 69% 30.21 in 10.0 mi NW 6.9 mph - N/A   Mostly Cloudy
12:35 PM 60.1 °F - 47.5 °F 63% 30.20 in 10.0 mi WNW 8.1 mph - N/A   Scattered Clouds
1:00 PM 58.1 °F - 46.6 °F 65% 30.20 in 10.0 mi WNW 8.1 mph - N/A   Scattered Clouds
1:15 PM 61.3 °F - 47.3 °F 60% 30.20 in 10.0 mi NW 5.8 mph - N/A   Clear
1:39 PM 59.9 °F - 46.0 °F 60% 30.20 in 10.0 mi NNW 4.6 mph - N/A   Scattered Clouds
1:55 PM 61.2 °F - 46.6 °F 59% 30.20 in 10.0 mi West 6.9 mph - N/A   Scattered Clouds
2:19 PM 62.8 °F - 46.0 °F 54% 30.19 in 10.0 mi NNW 9.2 mph - N/A   Mostly Cloudy
2:35 PM 63.5 °F - 46.8 °F 54% 30.19 in 10.0 mi WNW 8.1 mph - N/A   Mostly Cloudy
2:59 PM 62.6 °F - 46.6 °F 56% 30.19 in 10.0 mi NW 6.9 mph - N/A   Overcast
3:16 PM 61.0 °F - 46.6 °F 59% 30.19 in 10.0 mi WNW 6.9 mph - N/A   Overcast
3:39 PM 60.1 °F - 46.2 °F 60% 30.19 in 10.0 mi WNW 9.2 mph - N/A   Overcast
3:55 PM 59.4 °F - 47.3 °F 64% 30.20 in 10.0 mi NW 9.2 mph - N/A   Overcast
4:20 PM 58.1 °F - 46.4 °F 65% 30.20 in 10.0 mi NW 10.4 mph - N/A   Overcast
4:35 PM 58.3 °F - 47.1 °F 66% 30.20 in 10.0 mi NW 6.9 mph - N/A   Overcast
4:59 PM 58.1 °F - 46.4 °F 65% 30.20 in 10.0 mi NW 4.6 mph - N/A   Overcast
5:15 PM 60.4 °F - 47.3 °F 62% 30.20 in 10.0 mi NW 4.6 mph - N/A   Overcast
5:40 PM 59.0 °F - 46.2 °F 63% 30.20 in 10.0 mi NW 6.9 mph - N/A   Scattered Clouds
5:55 PM 57.7 °F - 46.8 °F 67% 30.20 in 10.0 mi NW 5.8 mph - N/A   Mostly Cloudy
6:19 PM 57.4 °F - 46.8 °F 68% 30.21 in 10.0 mi NW 6.9 mph - N/A   Overcast
6:35 PM 56.7 °F - 46.8 °F 69% 30.21 in 10.0 mi NW 8.1 mph - N/A   Overcast
7:00 PM 55.6 °F - 47.5 °F 74% 30.22 in 10.0 mi NNW 5.8 mph - N/A   Overcast
7:15 PM 55.4 °F - 47.3 °F 74% 30.22 in 10.0 mi NW 4.6 mph - N/A   Overcast
7:40 PM 54.9 °F - 46.6 °F 74% 30.23 in 10.0 mi NW 4.6 mph - N/A   Overcast
7:55 PM 54.7 °F - 46.4 °F 74% 30.23 in 10.0 mi NNW 4.6 mph - N/A   Overcast
8:20 PM 53.8 °F - 45.7 °F 74% 30.24 in 10.0 mi NW 4.6 mph - N/A   Overcast
8:35 PM 53.8 °F - 44.6 °F 71% 30.24 in 10.0 mi NW 4.6 mph - N/A   Overcast
8:59 PM 52.7 °F - 44.4 °F 73% 30.24 in 10.0 mi NNW 5.8 mph - N/A   Mostly Cloudy
9:16 PM 52.9 °F - 44.1 °F 72% 30.24 in 10.0 mi NW 4.6 mph - N/A   Mostly Cloudy
9:39 PM 52.0 °F - 44.4 °F 75% 30.25 in 10.0 mi NW 3.5 mph - N/A   Mostly Cloudy
9:55 PM 50.9 °F - 44.2 °F 78% 30.25 in 10.0 mi NW 4.6 mph - N/A   Scattered Clouds
10:20 PM 50.0 °F - 44.4 °F 81% 30.25 in 10.0 mi NNW 4.6 mph - N/A   Mostly Cloudy
10:36 PM 50.9 °F - 44.8 °F 80% 30.25 in 10.0 mi Calm Calm - N/A   Mostly Cloudy
10:59 PM 48.2 °F - 45.7 °F 91% 30.25 in 10.0 mi Calm Calm - N/A   Scattered Clouds
11:16 PM 47.1 °F - 44.8 °F 92% 30.25 in 10.0 mi SW 3.5 mph - N/A   Clear
11:36 PM 46.6 °F - 45.0 °F 94% 30.25 in 10.0 mi Calm Calm - N/A   Scattered Clouds
11:57 PM 45.7 °F - 44.2 °F 95% 30.26 in 10.0 mi Calm Calm - N/A   Scattered Clouds